Wind_Speed
16 24 26 26 27 27 27 27 27 27 27 28 27 26 25 24 23 20 19 21 23 21 20 20 17 16 18 19 18 18 18 18 17 15 12 10 12 15 15 13 12 11 11 12 12 11 9 6 5 5 5 4 4 3 4 5 6 6 7 8 9 9 6 4 4 8 12 10 8 7 5 4 3 3 3 4 5 4 5 6 6 6 4 3 3
15 21 23 25 26 27 27 26 27 27 28 29 27 27 26 24 23 21 19 20 21 21 20 19 16 15 17 19 19 18 19 18 17 16 12 10 11 13 14 14 13 12 11 11 11 10 8 7 5 4 5 4 3 3 3 4 6 6 7 9 8 7 6 6 4 7 8 6 6 4 2 1 2 2 2 3 4 5 5 7 8 7 5 4 2
13 16 19 24 26 28 26 25 26 28 29 29 28 27 26 24 24 21 20 21 21 20 20 17 14 14 15 18 19 18 18 17 16 14 11 10 12 11 11 13 13 11 10 10 10 9 7 6 5 4 4 3 3 3 3 3 5 7 8 8 8 6 4 6 5 5 7 7 5 2 2 1 1 2 1 2 2 5 7 8 9 8 5 4 4
13 14 16 22 25 26 25 24 25 26 27 28 28 28 27 26 24 22 22 22 21 20 18 15 14 15 15 16 16 17 17 17 15 13 12 11 11 10 10 12 13 11 11 10 8 7 7 6 6 4 3 3 3 3 3 3 5 7 7 7 7 7 5 5 5 4 7 7 3 2 1 2 1 3 2 1 4 2 6 9 11 10 7 5 5
14 13 14 19 23 24 24 25 25 26 27 28 29 30 28 27 25 23 24 23 21 20 17 15 16 18 17 16 16 15 15 16 15 13 14 15 12 11 10 11 12 11 11 11 7 6 7 6 5 4 4 4 3 3 2 3 4 5 6 6 7 7 6 4 3 4 4 3 2 2 1 1 2 2 3 2 4 6 3 6 8 8 7 5 5
13 14 15 18 21 23 25 26 26 25 26 28 30 29 29 28 25 23 24 25 23 20 17 17 18 19 19 18 17 17 15 16 17 15 16 17 13 11 10 10 12 11 10 9 7 6 7 6 5 4 5 5 3 2 2 3 3 3 4 4 5 5 5 5 5 5 5 5 4 2 1 2 2 1 1 1 4 5 4 3 3 1 2 3 4
12 14 15 17 21 23 24 26 26 26 27 28 28 28 29 27 25 24 24 25 24 20 19 19 18 18 19 19 19 19 18 18 18 16 16 15 13 11 11 12 11 10 9 8 7 7 7 7 6 5 5 4 3 2 1 2 2 2 3 2 3 3 4 6 8 7 7 7 6 5 3 2 1 1 1 1 2 2 2 2 1 2 3 2 3
12 14 14 17 22 23 25 27 27 27 28 27 26 27 29 27 25 25 24 24 23 22 20 20 20 19 19 19 19 18 19 19 19 16 15 14 12 11 12 13 11 10 9 8 7 7 8 8 6 6 5 4 3 2 0 2 3 2 1 1 0 1 3 6 8 8 8 8 7 6 5 1 1 2 1 1 2 1 3 2 2 5 5 2 3
13 14 15 18 22 25 27 29 28 28 28 28 26 27 29 28 27 26 25 24 23 22 21 20 20 20 20 20 19 18 18 18 18 15 15 15 13 11 13 13 11 11 10 8 7 7 7 7 7 6 5 4 4 2 1 3 4 2 1 1 1 0 2 4 5 7 8 8 8 7 6 4 1 1 1 1 2 1 2 3 5 9 8 5 3
12 14 18 21 24 27 30 30 29 28 29 28 27 28 30 29 29 27 26 25 24 22 21 20 20 20 21 21 19 18 17 17 16 16 16 15 14 14 14 13 12 12 11 9 7 7 7 7 7 7 5 4 4 3 4 5 5 4 3 3 2 2 1 1 2 4 6 6 7 7 6 5 2 2 2 1 2 2 1 3 6 7 7 8 8
11 12 18 24 26 28 30 30 29 29 29 29 28 29 31 31 30 29 27 26 24 23 22 21 20 20 21 22 21 20 19 18 18 19 17 16 16 16 15 14 13 12 11 10 8 8 8 7 8 8 6 5 5 5 5 5 6 5 3 4 4 3 2 2 1 2 5 5 6 6 7 6 3 1 1 1 1 0 0 3 6 6 6 9 10
9 10 15 20 22 24 27 29 29 29 29 28 29 31 32 32 31 30 28 27 25 24 23 23 22 21 21 21 22 21 20 20 20 20 18 18 19 18 17 16 14 12 12 12 10 10 9 7 8 9 7 6 6 5 6 5 5 5 4 4 4 3 2 2 2 1 3 5 6 7 6 6 4 3 2 1 2 1 1 3 6 5 4 7 10
8 10 13 14 16 21 24 27 28 29 30 29 30 31 32 32 32 31 29 28 27 26 24 24 23 22 21 21 21 21 20 20 21 20 19 19 19 19 18 17 15 14 14 14 12 11 10 9 10 10 8 8 8 6 6 6 4 5 6 5 4 3 2 2 1 1 2 5 7 6 5 5 5 4 4 3 3 3 3 3 4 3 3 6 9
7 9 12 13 16 22 24 26 28 29 30 30 31 32 31 31 32 32 30 29 28 27 25 24 24 23 21 21 20 20 20 20 21 20 19 19 19 19 18 17 16 15 15 14 12 11 11 9 10 10 9 9 8 7 7 6 6 6 6 6 5 4 3 2 2 2 3 5 6 5 4 4 5 5 5 4 3 3 4 4 4 4 4 5 7
6 9 12 14 20 25 25 26 27 29 31 31 31 32 32 31 32 32 31 29 28 27 26 24 24 23 22 21 21 21 20 20 20 19 19 19 18 17 17 18 16 14 14 13 11 12 12 11 10 10 10 10 9 9 8 8 7 7 6 7 6 4 3 3 4 3 3 5 5 5 5 5 6 6 5 5 4 4 4 3 3 3 3 4 6
6 8 11 16 22 26 27 27 27 29 31 32 32 33 33 32 32 31 31 31 29 28 27 25 23 23 22 21 21 20 20 20 19 19 19 18 18 16 17 17 16 13 13 13 13 13 13 12 11 11 11 10 10 10 10 9 9 8 7 8 6 5 4 4 4 4 4 5 5 6 6 6 6 5 4 4 4 4 4 5 5 3 2 3 4
7 8 10 15 21 25 27 27 27 28 31 32 34 35 35 34 32 31 30 31 30 28 27 25 23 23 22 21 21 20 19 19 19 20 19 18 17 16 15 15 15 13 13 14 14 14 13 13 12 11 11 9 9 10 10 10 9 8 8 8 7 6 6 5 5 5 6 6 6 5 6 6 6 6 5 5 5 5 6 6 6 6 4 2 1
7 8 10 15 20 24 26 27 29 30 32 34 35 35 35 35 34 32 31 31 31 29 28 27 25 23 23 22 21 21 20 19 20 20 19 18 17 16 15 15 14 13 13 14 14 14 14 13 12 11 10 9 8 9 10 11 10 8 7 7 6 5 6 5 5 6 7 8 7 6 7 7 6 6 6 6 6 7 7 7 6 7 7 6 3
7 7 8 11 18 23 25 26 27 31 33 34 36 35 34 34 34 33 32 32 31 29 29 27 25 24 23 22 22 21 20 19 19 20 19 18 17 15 16 16 14 13 13 14 14 14 13 13 12 12 11 9 9 9 8 9 10 9 8 8 7 6 6 6 7 8 8 7 6 6 7 7 5 5 5 6 7 8 9 9 7 7 8 8 7
6 6 6 8 15 23 27 27 27 31 34 35 35 35 34 34 34 33 32 31 30 29 29 28 27 25 23 22 22 22 21 19 19 20 20 18 17 16 16 16 15 14 14 15 15 14 13 13 12 12 11 10 10 9 9 9 9 9 9 9 8 7 7 8 7 8 7 6 6 7 8 7 5 5 6 6 7 8 9 10 10 9 8 9 10
6 5 5 7 12 18 24 26 28 32 35 36 36 36 35 34 34 33 32 31 31 30 29 29 28 26 25 23 22 22 21 20 20 20 20 18 17 17 16 15 14 15 15 15 15 14 13 13 12 12 12 11 10 10 10 10 10 11 10 10 9 8 8 8 8 8 8 7 7 7 7 7 7 8 9 9 9 9 9 9 10 11 10 10 11
7 6 4 6 11 17 20 24 27 30 33 36 36 35 34 33 34 33 32 31 31 30 30 30 29 27 26 24 23 22 21 21 20 20 19 17 17 17 16 16 15 15 15 16 15 14 13 13 13 12 12 11 11 11 11 11 10 11 11 10 10 9 9 9 9 9 8 7 8 8 9 8 8 9 10 10 10 10 9 9 9 11 11 9 9
3 5 5 7 10 15 19 23 25 28 31 33 34 34 34 34 34 33 32 32 32 31 30 29 29 28 27 24 23 22 21 20 21 21 20 19 18 18 17 18 17 16 16 16 16 15 14 14 13 13 12 12 12 12 11 11 11 11 12 11 10 10 10 10 10 9 9 8 8 9 10 9 9 10 10 10 11 11 10 10 10 10 11 10 9
1 1 0 3 9 12 15 20 23 25 29 32 32 33 33 34 34 34 34 34 33 32 31 30 29 28 27 25 23 22 22 21 21 22 21 20 19 19 19 20 19 18 18 18 18 16 15 15 15 14 14 13 14 14 13 13 13 12 11 11 11 11 11 11 10 9 9 9 10 11 10 10 11 11 10 11 11 12 11 10 10 10 11 11 10
5 4 4 4 1 4 9 18 24 24 25 29 31 32 32 33 34 34 34 33 33 33 31 30 29 28 27 26 25 24 23 22 22 21 20 20 19 18 18 19 19 19 19 19 19 18 17 17 17 17 16 16 15 15 14 14 13 12 12 12 12 11 12 12 12 11 10 11 11 11 11 11 11 11 10 10 10 11 12 11 10 11 11 10 10
6 7 6 3 4 9 7 4 18 25 25 25 28 29 30 32 34 35 35 33 33 33 32 31 29 29 28 26 25 25 25 23 23 21 19 18 18 17 17 18 18 18 18 19 19 19 19 19 19 18 18 18 16 15 15 15 14 13 12 13 13 13 12 12 12 12 12 12 11 10 9 10 11 11 11 10 10 10 11 11 11 11 10 8 7
8 8 8 8 6 4 11 13 5 9 17 22 25 26 27 30 29 30 32 31 28 27 29 31 31 29 28 27 25 25 25 23 23 22 19 18 19 18 18 19 20 20 20 19 19 20 20 20 20 19 19 20 18 17 16 15 14 13 13 13 14 14 14 12 11 12 13 13 12 11 10 10 11 12 13 11 11 10 10 11 12 12 11 8 7
9 9 9 10 10 10 6 5 11 11 9 9 11 11 11 14 12 9 11 16 19 19 18 23 29 29 26 25 24 24 24 23 22 22 21 20 19 17 16 15 15 17 19 21 21 21 21 22 22 21 20 21 20 18 17 16 15 15 15 15 14 14 14 13 12 14 14 12 12 12 12 11 10 11 12 11 11 11 12 13 13 12 11 9 8
9 9 9 10 10 10 13 14 9 8 13 14 16 19 20 21 22 19 14 10 12 17 13 13 20 24 22 22 21 21 21 21 22 21 21 21 19 16 14 13 11 11 12 15 18 19 21 24 25 23 21 22 21 20 18 18 18 18 17 16 16 15 14 13 12 12 11 11 12 13 12 10 10 10 10 10 10 11 12 14 12 11 11 10 8
8 8 8 9 9 11 14 16 16 15 14 10 3 4 10 15 19 18 13 9 8 10 9 8 12 16 18 19 18 17 16 18 20 20 20 20 19 17 15 13 12 11 9 8 9 11 15 20 24 25 23 22 21 20 19 19 18 18 18 17 17 16 15 14 13 11 9 8 10 10 9 8 8 8 9 10 11 12 13 14 12 11 11 11 10
6 7 8 8 9 11 14 16 17 18 18 17 15 12 11 13 14 14 15 15 12 8 7 6 8 12 15 16 15 14 13 14 16 17 17 18 18 19 17 15 13 13 12 10 8 7 9 12 17 22 22 22 21 20 20 19 18 17 18 18 18 18 17 15 13 11 9 7 5 6 6 6 7 8 8 10 11 12 13 13 12 11 10 10 10
5 6 7 7 7 8 10 13 17 18 18 18 19 18 16 16 16 15 16 16 15 13 9 8 10 12 13 13 13 12 12 13 13 13 14 14 14 16 17 17 14 13 12 12 11 9 9 9 11 16 19 21 21 20 19 19 18 18 18 17 18 19 18 16 14 11 10 8 6 5 5 5 6 8 10 10 11 11 12 12 12 11 10 9 8
5 6 8 8 8 9 10 13 15 16 17 17 19 19 19 18 16 14 12 13 12 13 12 11 11 11 9 9 11 12 13 13 13 12 12 12 11 10 11 12 12 11 11 11 10 9 9 9 10 12 15 17 19 19 19 18 18 18 18 17 16 18 20 18 16 14 13 10 9 7 6 6 7 9 10 10 10 11 11 11 11 11 10 8 8
7 8 8 10 11 14 15 16 17 18 19 18 17 17 18 19 18 13 10 9 8 9 9 8 9 8 6 7 10 12 12 13 13 13 13 13 12 11 10 10 10 10 10 9 8 8 8 9 10 11 12 14 16 18 18 16 15 15 15 15 14 16 18 18 16 15 14 12 11 9 8 9 10 10 11 11 11 11 10 9 9 8 8 7 7
9 9 9 10 13 15 15 15 15 16 18 18 18 18 17 16 16 15 12 10 8 8 7 5 8 9 8 8 11 13 13 12 13 13 12 12 12 12 11 12 12 12 11 10 8 8 8 10 11 12 12 14 14 15 14 13 13 12 11 13 14 15 16 16 15 14 12 11 10 10 10 10 11 11 12 12 11 10 9 8 8 7 6 6 6
9 10 11 12 14 14 14 13 13 14 16 17 20 21 20 15 12 13 14 12 11 11 10 8 9 10 10 9 10 12 12 12 13 13 12 11 10 10 10 11 12 13 13 12 11 10 10 11 12 13 13 13 13 12 11 12 12 12 11 13 15 16 16 15 15 13 11 10 9 10 11 11 10 11 11 11 10 9 8 8 8 8 7 6 6
12 13 14 15 15 15 14 14 14 15 17 18 20 24 24 20 15 13 13 12 12 12 12 12 11 10 9 9 8 9 9 10 10 10 9 8 8 10 11 11 12 13 15 15 14 13 11 11 12 15 16 16 15 15 17 18 16 14 13 14 15 16 16 15 13 11 9 9 8 9 9 9 9 9 9 9 8 7 7 7 8 8 8 7 6
15 14 14 16 18 18 16 16 16 17 16 16 19 22 24 23 20 18 15 13 13 12 11 11 10 8 8 7 6 6 6 6 6 6 6 6 6 8 9 11 11 12 13 12 12 11 12 15 17 19 19 20 19 20 23 25 22 19 17 16 15 15 15 14 13 11 9 8 7 7 7 6 6 6 6 6 5 5 6 6 7 8 8 8 8
17 17 16 16 18 20 20 20 19 18 16 16 18 20 22 22 20 19 18 16 14 13 12 11 10 8 7 6 6 6 6 6 6 5 4 4 4 4 5 6 7 7 8 8 8 10 14 19 21 19 17 17 17 17 19 22 22 22 20 18 16 15 14 14 13 12 10 8 6 5 6 6 5 5 5 6 6 6 6 7 8 8 9 8 7
16 18 17 16 18 21 22 20 19 17 16 17 19 21 22 20 19 19 19 17 16 14 12 11 10 9 8 7 7 7 6 6 5 5 6 6 4 4 3 1 0 2 4 4 5 9 12 13 13 12 11 11 11 10 12 14 18 20 20 19 19 18 17 15 14 12 11 9 7 6 7 7 6 6 6 7 8 9 8 8 8 8 7 7 7
15 17 16 15 16 19 19 18 16 14 13 14 18 21 22 20 19 19 17 15 14 13 12 11 11 10 10 9 9 9 8 8 7 8 9 9 8 6 6 5 5 4 3 4 5 7 8 7 5 5 5 4 3 3 4 6 11 15 16 17 19 19 19 17 15 13 11 9 8 7 8 8 7 7 7 8 9 10 10 9 8 7 7 8 8
16 16 16 16 16 16 16 14 12 11 11 13 17 20 21 20 19 17 14 13 12 11 10 11 10 10 11 11 10 10 10 10 9 9 10 10 8 8 7 7 9 11 12 12 11 10 10 10 9 9 9 9 8 6 5 4 4 7 9 9 9 11 14 16 15 13 12 11 10 9 8 7 6 7 8 9 9 10 11 11 10 9 9 10 10
16 16 15 17 17 16 16 15 12 12 13 14 17 18 17 17 16 15 14 13 13 11 10 10 10 10 10 10 10 10 10 10 9 8 8 8 7 7 7 8 10 13 15 16 15 14 14 14 14 14 14 13 11 9 8 8 8 7 7 8 6 5 7 11 12 13 14 14 13 11 9 7 5 6 8 9 10 11 13 13 12 11 12 12 12
15 15 14 16 17 16 16 16 14 14 13 13 15 16 15 15 14 12 13 13 12 11 11 10 10 9 8 7 7 7 8 9 8 7 7 8 7 7 8 9 9 12 14 16 16 17 16 16 16 15 14 13 11 10 10 10 11 11 12 10 8 6 6 7 9 10 11 12 11 9 6 5 5 6 9 11 13 14 15 15 14 14 14 13 12
15 16 16 18 18 16 16 15 14 13 13 13 13 14 14 13 11 11 11 11 10 10 10 10 10 9 9 8 8 7 7 7 7 6 7 8 8 9 10 10 10 11 12 13 14 15 16 16 15 13 11 10 10 9 9 9 10 11 12 11 7 5 4 3 4 5 5 6 6 5 3 3 6 9 12 14 15 15 14 13 13 12 11 9 8
17 18 18 18 17 15 15 14 12 11 12 12 11 11 11 11 10 10 10 9 9 8 7 7 7 7 8 8 8 8 8 7 6 6 7 8 8 8 10 11 11 11 12 13 13 13 14 15 14 11 9 8 8 8 7 7 8 9 9 10 8 6 4 2 1 1 1 2 4 3 2 4 6 7 9 11 10 9 8 7 7 7 6 6 5
20 20 19 18 17 16 15 14 12 9 9 10 9 8 8 9 9 9 9 8 8 8 7 6 6 5 5 4 4 3 3 2 3 5 6 7 7 7 8 10 10 10 10 11 12 13 14 14 13 11 9 7 6 4 4 5 6 8 9 10 11 9 6 4 3 2 0 2 3 2 0 3 3 2 1 1 2 1 1 0 1 1 1 2 4
21 21 19 18 18 18 16 15 13 10 9 10 8 7 7 8 8 8 7 6 5 5 6 6 5 4 4 4 4 4 4 3 3 4 6 7 7 7 7 8 8 8 8 8 9 10 12 13 11 9 7 5 3 0 3 5 7 8 9 10 11 10 9 7 6 4 3 2 1 3 3 3 6 10 11 12 12 12 13 13 13 12 12 13 14
21 21 19 18 18 18 16 15 13 11 10 9 7 7 7 7 6 5 4 4 3 2 3 4 3 3 6 7 7 7 6 5 5 6 6 6 6 5 5 5 5 5 6 6 6 7 7 7 6 5 3 2 0 3 5 7 7 8 10 10 10 10 9 8 8 6 4 4 4 5 6 7 9 12 15 17 19 19 19 19 18 17 17 16 16
19 19 18 18 17 16 16 14 12 10 9 8 7 7 6 5 4 4 4 3 3 3 5 7 7 7 8 8 7 8 7 6 6 6 5 6 6 5 5 4 4 3 3 3 4 5 5 4 2 1 1 2 3 4 6 7 8 8 9 9 9 9 7 7 7 6 4 4 6 9 11 11 12 13 14 17 18 19 20 19 18 18 17 16 15
18 18 18 17 16 15 14 13 11 10 9 8 7 6 5 4 3 4 5 3 2 3 4 7 8 8 7 5 5 6 6 5 4 4 4 5 5 5 4 5 5 5 4 3 2 3 2 2 1 1 2 2 3 4 6 7 7 7 7 7 7 7 6 6 6 6 6 8 9 12 13 13 14 15 16 17 18 19 19 19 19 18 18 16 15
Wind_Direction
146 150 154 155 156 159 160 161 163 165 167 166 165 166 166 166 168 166 164 165 166 167 170 172 173 167 165 171 172 169 173 173 172 173 169 171 173 172 174 172 166 165 168 170 171 173 172 168 159 149 139 141 142 108 88 76 55 44 44 42 48 62 72 69 90 136 144 144 143 140 146 167 183 198 220 234 237 254 270 258 229 200 193 174 173
142 149 155 155 154 157 159 160 163 163 164 165 165 166 166 168 170 169 168 168 168 169 170 173 174 170 165 166 164 163 170 174 175 175 174 177 176 172 176 177 169 164 168 172 175 176 176 170 162 163 163 157 154 122 86 70 54 50 52 46 50 62 65 65 97 150 151 143 139 120 80 205 210 216 222 229 242 255 255 241 216 192 175 165 189
145 150 154 154 153 155 158 161 164 163 163 165 166 167 168 170 172 173 172 169 170 172 176 177 176 176 169 166 165 162 164 169 171 172 175 180 177 176 183 185 178 170 170 176 179 178 176 173 163 165 175 165 145 122 97 72 66 63 52 43 49 64 65 60 73 139 156 147 128 89 11 346 312 316 235 191 273 252 224 214 214 206 193 192 229
151 153 153 153 153 156 159 162 163 162 162 164 166 167 169 171 174 176 173 171 173 176 179 179 173 171 169 169 172 169 167 168 168 173 182 179 177 181 186 188 186 180 174 174 179 181 178 178 174 167 161 145 131 122 102 86 82 69 55 45 44 52 55 49 55 104 154 162 126 87 51 40 352 327 324 333 30 55 198 210 221 223 222 224 248
155 157 156 154 154 157 161 162 162 162 163 165 167 169 170 173 176 178 177 174 175 177 181 180 168 165 165 166 172 173 172 175 173 174 180 182 182 183 183 185 187 184 179 175 177 184 184 185 186 174 150 136 133 127 111 108 94 70 60 54 42 46 48 45 54 74 120 155 117 104 74 31 238 282 335 339 35 67 138 201 216 227 236 246 266
157 159 159 158 156 157 160 162 162 163 166 167 168 171 173 175 178 179 178 177 177 179 185 185 173 168 167 165 169 172 174 181 180 175 180 185 188 188 184 178 176 176 178 180 184 188 185 186 191 186 166 149 138 117 109 120 109 87 76 58 35 41 50 56 59 60 76 76 48 46 344 295 240 241 72 328 2 46 89 141 169 243 267 264 286
159 161 162 162 158 156 160 163 164 164 168 169 169 173 175 177 178 177 177 179 181 183 187 188 183 180 176 172 174 175 177 181 182 181 187 191 193 193 184 171 170 175 181 191 199 195 186 186 191 191 182 165 153 132 104 133 141 120 85 56 29 44 65 61 53 52 64 56 36 33 0 303 289 17 131 201 338 4 24 87 129 16 8 2 5
161 162 164 165 163 160 162 166 168 167 167 169 170 175 178 179 178 177 180 184 186 186 188 190 190 190 185 179 179 180 181 180 181 186 193 193 194 192 183 175 179 188 194 200 206 203 193 189 192 190 188 188 178 168 151 167 175 176 70 66 87 68 69 61 54 51 47 34 31 43 39 28 249 330 348 139 128 216 316 323 314 341 347 338 7
162 164 165 168 167 165 165 169 171 171 170 171 173 176 180 180 178 179 185 188 189 188 187 188 191 192 188 182 182 184 184 182 184 190 192 193 194 187 180 181 191 199 203 206 206 209 203 193 193 187 190 202 196 200 201 178 181 202 234 212 211 1 51 54 53 51 39 26 24 31 42 69 111 64 55 93 101 111 290 294 319 336 340 336 348
162 165 167 169 170 169 169 170 172 174 174 174 175 176 178 180 180 182 186 187 188 188 186 187 189 189 186 184 184 185 187 186 189 190 189 194 196 187 183 188 195 199 202 208 209 209 207 200 197 184 178 198 204 205 199 189 192 199 216 224 244 285 302 48 49 45 35 27 26 21 24 38 60 88 95 104 98 101 235 279 317 332 326 329 346
166 165 167 170 172 171 170 171 172 174 176 177 177 177 177 180 183 185 187 188 188 187 186 188 188 185 184 184 183 184 187 188 188 188 188 192 191 189 192 194 197 199 202 210 213 207 203 201 199 187 181 203 210 207 207 203 202 201 212 234 251 275 272 253 251 48 40 28 18 6 5 5 357 14 52 122 154 138 191 287 313 329 310 312 335
171 163 167 169 171 172 171 172 173 174 177 179 179 180 179 181 184 186 188 189 188 186 186 189 188 184 183 184 184 185 187 187 187 189 191 191 190 190 195 198 200 204 207 214 216 209 205 202 201 198 202 218 217 212 216 211 205 215 236 248 255 268 279 271 257 40 34 13 355 343 352 359 342 315 308 285 250 266 343 306 313 331 315 310 334
178 165 168 169 170 173 173 173 174 175 178 180 181 181 180 182 184 185 188 190 189 187 188 190 191 189 188 189 189 187 187 189 190 191 191 192 192 192 195 200 203 205 206 213 215 208 208 205 203 204 210 220 221 221 223 217 221 238 248 253 255 260 275 283 283 350 355 347 340 326 329 352 350 332 319 302 254 257 306 308 309 316 293 308 331
184 169 169 171 172 174 175 175 176 176 178 179 180 180 180 181 184 185 188 191 191 190 190 193 194 194 194 194 194 192 189 189 192 193 191 191 195 197 200 204 206 207 208 212 212 208 210 213 212 210 208 212 218 225 228 226 230 235 237 245 249 249 265 287 302 312 326 339 339 322 308 321 334 331 327 314 267 273 307 298 297 312 300 310 329
186 174 173 174 174 175 176 177 177 177 177 178 179 180 180 181 183 186 187 190 192 192 192 194 195 196 197 195 196 198 195 191 192 196 195 193 197 201 203 206 210 214 213 214 215 213 216 221 220 216 215 215 220 228 233 233 228 222 227 238 240 240 259 280 292 299 314 326 331 329 307 290 307 321 326 321 294 287 306 301 311 331 320 326 334
187 179 177 176 175 176 178 179 180 178 176 176 178 179 180 181 183 186 188 189 192 192 192 195 196 197 197 196 197 200 198 195 194 198 200 200 203 206 206 208 212 215 215 215 218 218 219 222 223 221 222 223 225 230 233 233 228 225 232 243 246 246 256 271 284 293 301 303 314 328 311 285 292 303 304 311 304 294 293 290 298 303 296 326 335
188 182 180 178 176 178 179 179 181 178 174 175 178 180 181 182 183 185 188 189 190 191 193 196 197 197 197 197 199 199 197 196 197 201 204 203 205 211 212 211 212 213 213 213 217 220 220 221 226 227 223 225 230 229 224 220 223 231 238 245 248 247 253 268 281 282 283 285 297 317 311 293 288 287 290 296 293 297 297 286 289 295 284 271 295
190 184 181 177 176 180 181 180 181 178 175 176 178 181 182 182 183 184 186 188 190 192 194 197 199 199 199 199 200 200 199 199 200 202 203 202 204 211 214 214 213 212 211 212 216 220 221 221 228 230 225 228 234 229 219 216 222 234 239 240 241 242 252 263 270 274 277 279 286 302 306 302 292 281 291 302 290 290 298 292 289 292 286 265 236
187 183 183 179 177 180 181 181 180 176 175 176 178 180 181 182 184 185 187 190 192 194 194 197 200 201 202 203 202 202 202 202 202 201 200 201 204 209 212 214 213 213 214 214 214 217 218 218 223 226 226 231 236 231 224 223 226 231 237 244 243 246 260 264 263 270 276 278 286 304 305 300 297 287 293 306 296 291 295 292 290 290 285 277 269
178 172 171 170 175 180 181 181 177 174 174 175 176 178 181 183 184 185 188 190 192 194 195 197 200 202 203 205 204 205 206 205 203 201 202 206 209 212 215 213 212 215 218 215 214 216 218 217 219 222 224 231 237 234 230 234 237 236 243 251 246 248 263 267 268 270 269 270 284 302 300 287 286 291 293 296 295 297 298 289 286 288 283 281 282
155 153 151 149 160 174 181 179 175 172 172 174 176 179 181 182 183 184 186 188 190 194 196 198 201 203 204 206 206 207 208 207 204 204 207 211 214 216 217 213 212 217 217 214 215 220 222 223 223 225 227 233 237 236 236 243 248 248 250 253 248 250 262 268 272 272 264 264 274 286 287 277 278 284 283 283 287 293 294 288 284 283 280 279 279
165 144 139 155 153 159 168 172 171 169 171 173 176 178 180 181 183 184 185 187 189 192 197 200 201 203 206 208 208 207 207 207 206 207 211 213 215 216 216 214 217 219 217 215 217 222 226 226 226 229 230 233 237 239 239 241 246 249 249 251 249 252 260 267 272 273 268 262 265 272 273 271 277 283 281 279 284 287 283 282 281 277 280 285 280
210 152 155 167 154 154 158 160 164 167 169 173 175 177 179 181 183 183 185 188 190 193 197 200 201 203 206 209 209 208 209 210 209 209 212 215 216 215 214 217 222 225 223 221 221 223 224 222 222 225 228 231 236 241 242 242 243 246 248 251 252 251 257 267 274 275 272 265 264 272 273 270 272 280 285 283 285 286 276 272 279 279 280 286 284
182 94 44 143 148 158 157 150 155 163 167 171 174 176 178 180 182 183 187 190 191 193 196 199 203 205 206 208 209 208 209 212 212 211 215 220 221 218 217 220 225 229 231 230 227 225 222 219 219 222 225 230 237 240 242 243 242 244 248 251 254 254 256 263 271 276 275 270 270 273 272 269 270 277 290 293 290 288 279 272 278 281 280 282 282
128 105 25 15 44 197 168 151 151 158 166 171 174 177 178 180 182 184 187 190 192 194 195 198 202 204 205 207 209 209 209 211 213 215 219 223 223 221 222 223 227 232 234 232 229 225 223 222 223 226 226 228 234 238 239 239 239 243 248 251 255 258 257 260 264 267 269 268 271 277 275 272 271 272 280 286 290 291 284 276 280 282 281 284 283
125 131 121 78 355 332 327 163 156 157 162 168 172 175 177 180 183 185 188 191 192 194 196 198 201 202 204 208 210 210 209 211 214 216 220 221 219 222 229 230 230 233 232 229 229 228 225 224 226 228 227 227 229 231 230 233 236 240 245 251 256 258 258 259 260 260 262 262 264 271 276 279 276 269 268 274 281 285 278 272 278 280 276 279 278
142 147 148 147 133 33 352 346 8 144 155 160 165 172 179 182 184 188 190 190 190 192 195 198 199 200 202 206 208 208 209 212 214 215 216 217 219 226 234 235 234 233 230 228 232 231 227 226 226 226 226 227 227 225 224 228 234 236 242 250 256 258 256 254 255 259 261 261 262 262 267 278 278 268 266 269 270 271 270 270 275 275 268 263 257
148 151 154 158 150 131 111 32 10 19 48 92 108 112 136 151 148 155 170 170 174 182 192 199 198 196 199 201 201 205 209 212 213 214 216 219 222 226 230 229 227 228 229 232 236 235 230 229 228 227 228 229 227 225 225 229 233 234 239 246 251 256 255 249 252 260 263 265 267 265 265 273 277 269 268 269 263 260 266 273 274 264 249 239 240
152 151 149 152 150 141 141 141 131 81 55 47 43 46 56 67 65 61 63 84 142 167 179 192 190 189 192 195 196 202 207 210 211 214 218 223 227 228 225 223 223 224 228 232 237 239 236 232 229 229 230 228 225 224 226 230 233 233 235 240 245 250 251 245 245 255 264 267 266 264 265 271 278 276 274 274 268 263 268 274 272 254 237 237 253
146 146 144 144 143 137 130 130 135 131 119 118 118 68 78 82 78 80 89 97 125 140 130 135 158 170 179 185 190 196 202 209 212 214 219 224 228 229 227 231 235 238 240 237 235 233 231 231 231 229 228 225 223 225 228 232 234 234 236 239 241 246 249 246 243 249 258 259 257 256 256 265 276 277 275 274 271 268 268 270 266 255 251 259 272
127 131 135 137 136 133 128 125 130 137 139 149 163 166 152 139 125 120 133 151 160 140 105 119 153 167 176 181 186 190 195 203 208 213 218 221 224 226 229 235 237 241 247 250 250 240 223 223 227 227 226 225 224 226 230 235 238 239 239 240 241 244 247 242 238 240 244 242 244 244 245 260 272 273 272 270 266 265 261 256 251 249 256 264 268
120 116 112 115 121 126 126 125 129 137 141 143 146 144 134 129 130 131 136 147 159 163 166 181 187 184 184 191 199 203 205 205 203 204 205 206 208 215 224 231 235 238 243 245 250 254 243 229 223 221 222 221 222 226 230 235 240 240 241 244 245 244 240 232 227 228 229 227 226 228 241 260 263 265 269 269 267 266 258 250 248 247 248 255 263
99 93 88 87 85 88 96 102 110 120 128 136 141 136 125 120 123 131 140 144 149 158 172 192 201 197 196 204 213 222 227 224 217 210 207 205 206 209 216 224 227 231 235 239 245 252 251 242 228 219 217 218 221 226 229 231 237 241 244 249 248 239 233 230 228 225 221 221 226 233 248 261 262 268 273 270 269 267 258 252 252 248 247 254 262
76 74 80 87 87 86 90 95 101 111 121 130 137 134 129 128 128 129 140 149 151 150 159 191 214 216 216 214 217 225 230 229 222 218 218 218 220 224 227 229 231 234 238 243 248 252 252 243 232 224 222 221 220 222 224 225 230 238 244 246 239 228 226 226 221 216 216 223 231 240 253 262 264 271 275 269 264 260 255 253 249 245 248 252 255
71 65 60 67 78 83 86 91 99 108 113 112 114 117 119 121 127 132 138 150 164 158 151 191 223 226 224 216 215 219 222 220 214 211 214 217 220 227 233 236 240 246 251 255 254 250 247 239 231 226 225 224 221 219 221 224 227 230 230 228 222 214 212 209 205 208 218 226 235 247 257 261 263 264 265 263 256 248 247 248 244 239 237 240 255
83 80 68 61 65 70 72 78 84 89 91 91 96 106 113 118 129 138 138 144 154 151 149 171 198 211 214 209 207 211 212 213 213 214 219 222 226 237 245 246 249 254 259 262 258 252 246 238 231 231 236 236 227 224 232 236 233 228 222 220 218 211 206 206 207 214 225 231 241 253 256 255 255 253 251 250 244 241 242 241 238 236 239 247 259
83 87 90 89 87 83 80 80 80 78 79 86 95 104 110 115 122 129 129 132 132 130 137 151 165 184 198 197 197 200 203 210 218 224 232 233 230 238 247 251 254 257 257 256 254 249 246 242 240 245 254 252 238 238 251 251 242 235 228 222 219 213 208 208 209 213 223 232 239 244 246 246 243 242 242 240 236 237 239 241 245 249 253 256 252
84 83 85 89 92 93 89 86 83 80 80 89 98 104 108 111 115 121 124 123 119 118 125 133 139 153 167 174 180 183 185 197 210 218 229 233 229 235 245 250 252 255 256 257 255 248 245 248 251 253 256 252 241 241 249 249 244 240 231 220 216 214 209 206 205 206 214 224 224 221 225 230 226 226 232 234 240 247 251 259 265 266 265 260 249
96 92 88 91 95 96 93 89 85 83 86 93 99 101 102 102 106 114 116 114 112 113 115 118 122 129 137 146 154 159 163 170 179 185 188 194 204 217 238 250 256 264 268 264 252 243 245 250 252 251 249 245 240 238 239 240 237 234 227 215 210 212 210 206 202 200 201 204 203 198 202 210 214 219 230 246 262 268 268 268 267 268 267 261 253
103 102 100 101 101 97 93 91 90 90 94 100 103 101 98 96 97 100 101 101 103 106 111 116 121 124 125 124 120 118 122 126 135 139 124 111 120 139 151 156 178 278 274 261 230 225 230 234 234 230 225 227 230 226 224 225 222 219 216 209 205 206 205 201 197 194 191 187 187 191 199 206 212 218 231 248 259 263 265 261 255 256 257 252 249
108 111 111 107 101 97 95 96 97 98 99 102 105 102 98 96 94 92 91 96 101 106 111 117 120 120 117 111 101 93 86 85 95 108 104 96 97 112 126 129 122 122 121 113 138 177 188 175 163 165 164 159 163 178 192 200 199 198 198 199 199 199 195 188 184 183 182 176 175 186 194 199 205 215 228 238 244 249 252 246 239 242 249 253 259
111 112 110 104 99 99 100 100 100 99 98 101 102 99 97 97 96 95 99 105 108 110 115 118 117 114 109 103 95 91 88 88 93 104 104 94 91 103 120 130 126 119 112 109 117 134 138 125 113 109 107 102 93 86 77 80 137 169 169 168 177 183 182 179 173 165 161 161 168 182 193 199 209 226 236 238 241 246 248 247 247 252 260 266 269
119 116 110 107 104 104 106 110 111 108 106 108 108 107 107 107 107 109 110 108 107 109 115 120 121 118 111 105 97 92 92 93 94 100 101 93 89 95 102 111 121 123 118 115 119 123 122 118 114 109 107 106 105 102 90 73 66 69 79 86 90 107 142 162 160 148 145 153 166 179 190 200 215 237 248 251 253 254 256 257 260 265 269 273 275
127 124 122 117 113 111 112 117 122 123 124 125 122 122 123 123 124 126 122 114 110 108 110 116 121 121 118 115 109 97 91 91 91 93 95 92 89 92 95 100 117 128 127 123 122 121 120 121 120 116 113 113 114 115 109 90 71 63 63 65 68 75 99 134 142 134 135 146 160 173 187 205 236 258 266 268 265 263 264 266 268 270 273 273 274
135 134 133 126 121 118 116 117 123 129 133 134 130 126 123 122 128 133 127 121 119 116 115 115 114 115 117 114 107 96 87 87 91 94 95 94 95 97 99 104 115 126 134 136 134 130 128 128 127 125 124 125 124 120 109 87 69 65 65 64 65 70 78 109 130 126 132 146 160 178 200 249 275 274 273 272 271 270 269 268 267 267 267 267 269
135 134 131 127 124 122 119 117 120 128 134 136 132 125 117 116 124 130 131 134 137 135 131 123 115 117 120 116 105 94 86 81 80 86 92 93 93 93 95 100 110 119 129 139 144 143 140 139 141 142 142 141 137 127 108 78 56 50 50 48 45 49 58 69 92 113 187 214 218 223 253 302 300 286 276 271 271 270 266 265 268 268 269 275 283
136 136 133 131 130 128 126 126 127 133 140 140 135 127 123 126 133 134 137 143 146 147 147 141 132 128 128 130 125 120 122 104 83 90 96 92 85 85 87 89 97 108 118 129 139 146 149 153 160 163 156 149 144 127 91 57 37 25 21 18 12 9 14 29 47 63 81 247 232 209 12 0 5 25 356 273 260 246 211 146 40 39 67 74 78
140 140 138 135 135 136 137 138 139 142 143 139 135 129 126 130 133 133 133 132 129 137 145 142 134 123 125 137 149 163 181 181 135 117 115 104 88 78 76 79 85 94 103 113 125 139 150 159 164 164 159 158 164 138 10 12 12 5 1 2 0 354 352 1 16 35 49 47 94 128 107 63 75 89 93 94 97 101 103 99 96 96 98 99 98
144 145 143 141 142 145 147 144 143 144 142 138 137 135 134 136 136 135 135 121 103 127 169 166 150 126 127 128 130 137 145 139 127 128 131 124 106 84 74 77 86 95 102 109 117 125 136 146 154 164 173 180 312 341 346 354 357 350 343 344 350 349 347 353 4 15 33 52 66 86 94 89 91 94 93 92 95 99 99 97 95 95 96 96 94
144 145 144 144 145 148 148 144 143 146 146 141 139 142 149 161 173 184 181 143 101 109 146 153 144 134 131 124 119 125 132 130 123 121 123 123 114 98 88 86 87 95 106 117 131 137 137 137 143 243 281 330 348 339 336 338 337 332 331 332 336 338 341 354 7 17 48 78 77 78 83 89 92 91 89 90 93 96 94 91 89 88 87 87 84
144 144 143 145 147 149 148 147 148 155 160 160 158 161 171 175 182 194 191 174 116 98 134 149 150 147 144 134 125 130 137 138 134 125 119 120 113 101 93 85 79 81 89 101 125 136 127 110 75 0 329 331 328 317 313 314 312 314 325 335 334 333 347 13 28 45 65 70 69 73 77 84 89 89 87 89 93 93 91 88 85 82 80 78 77
Height
814 817 820 821 823 825 827 829 831 833 835 837 839 841 842 844 846 848 849 850 851 852 853 854 854 855 856 857 858 858 859 860 861 862 862 863 864 864 864 865 865 865 866 866 866 866 866 866 866 867 866 866 866 865 865 865 864 864 864 863 863 862 862 862 862 863 863 863 864 864 863 863 864 864 863 863 863 863 862 862 862 861 861 860 860
814 817 820 821 823 824 826 828 830 832 834 836 838 840 842 843 845 847 848 850 851 852 853 853 854 855 855 856 857 858 859 860 861 862 862 863 863 864 864 864 865 865 866 866 866 866 866 866 866 866 866 866 866 865 865 865 864 864 864 863 863 863 862 862 863 863 863 863 863 864 864 864 863 863 863 863 862 862 862 862 861 861 861 860 860
815 816 819 821 822 824 826 828 830 831 833 835 837 839 841 843 845 846 848 849 851 852 853 853 854 855 856 856 857 858 859 860 861 862 862 863 863 864 864 864 865 865 866 866 866 866 866 866 866 866 866 866 866 865 865 865 865 864 864 864 863 863 863 863 863 863 863 863 864 866 866 866 865 864 863 863 862 862 862 862 861 861 861 861 860
817 817 818 820 821 823 826 828 830 831 833 834 836 838 840 842 843 845 847 849 850 852 852 853 854 855 856 857 857 858 859 860 861 862 863 863 863 864 864 864 865 865 866 866 866 866 866 866 866 866 866 866 866 865 865 865 865 865 865 864 864 864 864 863 863 863 863 864 865 867 868 869 871 867 863 863 862 861 861 861 862 861 861 861 860
816 817 817 818 820 822 825 827 829 831 833 834 835 837 839 841 842 844 846 848 850 851 852 853 854 854 855 856 857 858 859 860 861 861 862 863 863 863 864 864 865 865 866 866 866 866 866 866 866 866 866 866 866 865 865 865 865 865 865 865 865 865 864 864 863 863 864 864 865 867 869 871 872 867 865 864 862 861 862 861 862 862 861 861 860
813 815 816 817 819 821 824 826 828 830 832 834 835 836 838 840 842 844 845 847 849 850 851 852 853 854 854 855 856 857 858 859 859 860 861 862 862 863 864 864 865 865 865 866 866 866 866 866 866 866 866 866 866 866 865 865 865 865 865 865 865 865 864 864 864 864 864 864 864 865 866 868 867 865 866 867 863 862 862 862 862 861 861 861 860
811 813 815 816 818 820 823 825 827 829 831 833 835 836 838 840 841 843 845 846 848 849 850 851 852 853 854 855 855 856 857 857 858 859 860 861 862 863 863 864 864 865 865 865 866 866 866 866 866 866 866 866 866 866 865 865 866 866 866 866 865 865 865 864 864 864 864 864 864 864 864 864 864 864 866 867 867 865 862 862 862 861 861 861 860
810 812 813 815 816 818 821 824 826 828 830 833 835 836 837 839 841 843 844 845 847 848 849 850 851 852 853 854 855 856 856 857 858 859 859 860 861 862 862 863 864 864 864 865 865 865 865 866 866 866 866 866 866 866 865 865 866 866 866 866 865 865 865 865 865 865 864 864 864 864 864 863 863 864 864 865 867 868 865 862 862 861 861 861 860
807 809 811 813 815 817 819 821 824 826 829 831 833 835 837 839 841 842 844 845 846 847 848 850 851 851 853 854 855 856 857 857 858 858 859 860 860 861 862 862 863 863 864 864 864 864 865 865 866 866 866 866 866 866 865 865 865 865 865 865 865 865 865 865 865 865 864 864 864 864 864 864 864 864 864 864 864 867 867 864 862 862 861 860 860
804 806 808 811 813 815 817 820 823 825 827 830 832 834 836 838 840 841 842 844 845 847 848 849 850 851 852 853 854 855 857 857 858 858 859 859 860 861 861 862 862 863 863 864 864 864 864 865 865 866 866 866 866 865 865 865 865 865 865 865 865 865 865 865 865 865 864 864 864 864 864 864 864 864 864 864 864 865 866 864 863 862 862 861 860
802 804 806 809 812 813 816 818 821 823 826 828 830 832 835 836 838 840 841 843 844 846 848 849 850 850 851 852 853 855 856 857 857 858 859 859 859 860 861 861 862 862 863 863 864 864 864 865 865 865 865 865 865 865 865 865 865 865 865 865 865 865 865 865 865 865 865 864 864 864 864 864 864 864 864 864 864 864 865 864 863 862 862 861 860
802 804 805 807 810 812 815 816 818 821 824 826 828 830 832 834 837 839 840 842 843 845 847 848 850 850 851 852 853 854 855 856 856 857 858 858 859 860 860 861 862 862 863 863 863 864 864 864 865 865 865 865 865 865 865 865 865 865 865 865 865 865 865 865 865 865 865 864 864 864 864 864 864 864 864 864 863 863 864 864 863 862 862 861 860
801 802 804 805 808 810 813 815 817 819 821 824 826 828 831 832 835 837 839 840 842 844 846 847 849 850 851 852 853 854 854 855 856 857 857 858 859 859 860 861 861 861 862 862 863 863 863 864 864 865 865 865 865 865 865 865 865 865 865 865 865 865 865 865 865 865 865 865 865 864 864 864 864 864 864 863 863 863 863 863 863 862 862 861 860
799 800 801 802 805 807 810 813 814 816 819 822 824 826 829 831 833 835 837 839 841 843 845 846 848 849 850 851 852 853 854 855 855 856 857 858 858 859 859 860 861 861 861 862 862 863 863 863 864 864 864 865 865 864 864 864 864 864 865 865 865 865 865 865 865 865 865 865 865 865 864 864 864 864 864 863 863 863 863 863 863 862 861 860 859
797 798 799 800 802 804 808 810 812 814 816 819 822 824 827 829 831 833 835 838 840 842 844 845 847 848 849 851 852 853 853 854 855 856 856 857 858 858 859 859 860 860 861 862 862 863 863 863 863 864 864 864 864 864 864 864 864 864 864 864 865 865 865 865 865 865 865 865 865 865 865 865 865 864 864 864 863 863 863 863 863 863 863 861 859
795 797 797 797 799 802 805 807 810 812 814 817 820 822 825 827 830 832 834 836 838 841 842 844 846 847 848 850 851 852 853 853 854 855 856 856 857 858 858 859 859 860 861 861 862 862 862 863 863 863 863 864 864 864 864 864 864 864 864 864 864 865 865 865 865 865 864 864 864 864 864 864 864 864 864 864 863 863 863 863 862 862 864 865 863
793 795 795 795 797 800 802 804 807 809 811 814 817 820 822 825 828 830 833 835 837 839 841 843 844 846 847 848 850 851 852 852 853 854 855 856 856 857 858 858 859 860 860 861 861 862 862 862 862 863 863 863 863 863 863 863 864 864 864 864 864 864 865 865 864 864 864 864 864 864 864 864 864 863 863 863 863 863 863 863 863 862 863 865 865
791 792 793 793 795 798 800 802 804 806 809 812 815 819 821 823 826 828 831 833 836 838 840 842 843 844 846 847 848 849 850 851 852 853 854 855 856 856 857 858 858 859 859 860 860 861 861 861 861 862 862 862 863 863 863 863 863 863 863 864 864 864 864 864 864 864 863 864 863 863 863 863 863 863 863 863 862 863 863 862 863 862 862 863 864
790 790 792 792 792 796 798 800 803 804 807 810 814 818 820 823 825 826 829 831 834 837 838 840 842 843 844 845 847 848 849 850 851 852 853 853 854 855 856 857 857 858 859 859 860 860 860 860 860 861 861 862 862 862 862 862 863 863 863 863 863 863 863 863 863 863 863 863 863 863 863 863 863 862 862 862 862 862 862 862 862 862 862 863 862
789 789 791 790 791 794 795 798 801 803 806 809 812 816 818 821 823 825 827 830 832 835 836 838 840 841 843 844 846 847 848 849 850 851 852 852 853 854 855 856 856 857 858 858 858 859 859 859 860 860 860 861 861 861 862 862 862 862 862 862 863 863 863 862 863 863 862 863 863 862 862 862 862 862 862 862 861 861 861 861 861 861 861 862 861
789 789 790 789 790 793 794 797 799 801 804 807 810 814 816 819 821 823 826 828 830 833 834 836 838 840 841 843 844 845 846 848 849 850 850 851 852 853 853 855 855 856 856 857 857 857 858 858 859 859 860 860 860 861 861 861 861 861 861 862 862 862 862 862 862 862 862 862 862 862 862 862 862 862 861 861 860 860 860 860 860 860 860 860 860
789 789 790 790 789 790 792 795 797 799 802 805 808 811 814 817 819 821 824 826 828 830 832 834 836 838 840 841 843 844 845 847 847 848 849 850 851 851 852 853 854 854 855 855 856 856 857 857 858 858 859 859 860 860 860 860 860 861 861 861 861 861 861 861 861 861 861 861 861 861 861 861 861 861 860 860 860 860 859 859 859 859 859 859 859
792 790 790 789 789 791 792 793 795 798 800 803 806 809 812 814 817 819 822 823 826 828 830 832 834 836 838 839 841 843 844 846 846 847 848 849 850 850 851 852 852 853 853 854 855 855 856 856 857 857 858 858 859 859 859 859 859 860 860 860 860 860 861 861 860 860 860 860 860 860 860 860 860 860 860 860 860 859 859 858 858 858 858 858 858
791 793 793 792 792 793 792 792 795 797 799 801 804 807 810 812 815 817 819 821 823 825 828 830 832 834 836 838 840 841 843 844 845 846 847 848 849 849 850 851 851 852 852 852 853 854 854 855 855 856 856 857 857 858 858 858 858 859 859 859 859 859 860 860 860 860 860 859 859 859 859 859 859 859 859 859 859 859 858 858 857 857 857 857 857
790 793 798 800 800 798 795 793 794 796 799 801 802 806 808 810 813 815 817 819 821 823 826 828 831 833 835 837 838 840 842 843 844 845 846 847 848 849 849 850 850 850 851 851 851 852 853 853 854 854 855 855 856 856 857 857 857 858 858 858 858 858 858 858 859 859 858 858 858 858 858 858 858 858 858 858 859 859 858 857 857 857 857 857 857
792 792 796 801 804 805 802 798 795 795 798 800 802 805 807 809 811 812 815 817 819 822 824 827 829 832 834 836 837 839 840 842 843 844 845 846 847 848 848 849 849 849 849 849 850 851 851 851 852 852 853 853 854 854 855 855 856 856 856 857 857 857 857 857 858 858 857 857 857 857 857 857 857 857 857 857 857 857 857 856 856 856 856 856 856
791 791 792 794 798 804 806 806 803 799 800 801 803 806 807 809 812 813 815 816 819 822 824 826 828 830 833 835 836 838 839 841 842 843 844 845 845 846 846 847 847 847 848 848 848 849 849 850 850 851 851 852 852 853 853 854 854 855 855 855 855 856 856 856 857 856 856 857 856 856 856 855 855 855 856 856 856 856 855 855 855 855 855 855 855
787 789 791 791 793 796 802 807 808 807 807 806 807 809 810 811 814 816 818 818 818 821 825 827 828 829 832 833 835 837 838 839 841 841 843 843 844 845 845 845 846 846 846 847 847 847 848 848 849 849 849 850 850 851 852 852 852 853 853 853 854 854 854 855 855 855 855 855 855 855 854 854 854 854 854 855 855 854 854 854 854 854 854 853 854
787 788 790 791 793 793 795 800 803 807 810 811 812 813 813 815 817 819 822 824 823 823 826 829 829 829 831 832 834 835 837 838 839 840 841 842 843 843 844 844 844 844 845 845 845 846 846 846 847 848 848 848 849 850 850 851 851 851 851 852 852 853 853 853 854 854 854 854 853 853 853 853 852 852 853 853 853 853 853 852 853 853 853 853 852
787 788 790 792 793 794 795 797 799 802 805 808 812 814 815 816 818 821 824 827 829 828 828 829 830 830 831 832 833 835 836 837 838 839 840 840 841 842 842 842 843 843 844 844 844 844 844 844 845 846 847 847 848 849 849 849 850 850 850 850 850 851 852 852 852 852 853 852 852 852 852 852 852 851 851 851 851 851 851 851 851 852 852 852 851
790 791 792 793 794 795 796 796 798 800 802 804 808 812 814 815 818 820 820 822 826 829 830 831 831 832 832 832 834 835 835 836 837 838 838 839 840 840 840 841 841 842 843 843 844 844 843 843 844 844 845 846 846 847 848 848 848 849 849 849 849 849 850 850 850 850 851 851 851 851 851 851 851 850 851 850 850 850 850 850 850 850 851 850 850
794 793 794 795 796 796 796 796 798 800 803 804 806 809 813 816 818 819 818 819 822 825 829 832 832 832 832 832 834 834 835 836 836 837 837 838 838 839 839 839 840 840 842 842 843 843 843 843 843 843 843 844 845 846 846 846 847 847 847 847 847 848 848 848 848 848 849 849 849 850 850 850 850 849 849 849 849 849 848 848 849 849 849 849 849
796 795 795 797 798 798 798 799 800 802 804 805 806 809 812 814 815 816 817 819 821 824 828 830 831 831 832 832 833 834 835 836 836 836 837 837 837 838 838 839 839 840 840 841 841 842 842 843 843 843 843 843 843 844 844 844 845 845 845 845 845 846 846 847 847 847 847 847 847 848 848 848 848 848 848 848 848 847 847 847 847 848 848 848 848
797 797 797 798 800 801 801 801 802 804 805 806 807 808 811 812 814 815 816 818 820 824 826 828 828 829 830 831 832 833 834 834 835 835 835 836 836 837 837 838 838 839 840 840 841 841 841 842 842 842 842 842 842 842 842 843 843 843 843 843 843 844 844 845 846 846 846 845 845 846 846 847 847 846 846 846 846 846 846 846 846 846 847 847 847
800 801 802 802 803 805 806 805 805 806 806 807 809 809 811 813 815 817 817 819 821 823 825 827 827 827 827 829 830 831 832 833 833 833 834 834 835 835 836 836 837 838 839 840 840 840 840 840 840 841 841 841 841 841 841 841 842 842 842 842 842 842 843 843 844 845 845 845 845 845 845 845 845 845 845 844 845 845 845 845 845 846 846 846 846
802 803 805 807 808 809 810 810 809 809 809 811 812 813 813 814 815 817 818 820 822 823 825 827 828 827 828 829 830 831 831 831 832 832 833 833 834 835 836 835 836 837 837 838 839 839 839 839 839 840 840 840 841 841 841 841 841 841 841 841 841 841 841 842 842 843 843 844 844 844 843 844 843 843 843 843 844 844 844 844 845 845 845 845 845
804 806 806 807 809 809 810 810 810 811 812 814 816 817 817 818 818 819 819 820 822 824 827 828 829 830 830 830 831 831 830 831 831 832 832 833 833 835 835 834 834 835 835 836 837 838 838 839 839 838 838 839 839 839 839 840 840 840 840 840 840 839 839 840 840 840 841 842 842 842 842 843 842 842 842 843 843 843 843 843 844 844 844 844 844
806 809 809 809 809 809 809 811 811 812 814 815 818 820 821 823 823 823 823 824 825 826 828 829 830 831 831 831 831 830 830 830 831 831 832 832 832 833 832 832 832 832 832 834 835 836 837 837 837 836 836 836 836 836 837 837 838 838 839 838 838 838 838 838 838 838 839 839 840 841 841 842 842 842 842 842 842 842 842 842 843 843 843 843 843
808 809 810 811 811 810 810 811 812 814 816 817 819 821 823 825 826 826 826 826 827 828 828 829 830 831 831 831 831 831 830 831 831 831 832 832 831 831 831 831 831 831 831 832 833 834 835 834 834 834 834 835 835 834 835 835 835 835 836 835 836 837 837 837 837 837 837 837 839 840 841 841 841 841 841 841 841 842 841 841 842 841 841 841 841
811 810 811 813 813 810 810 812 814 816 817 818 820 821 824 826 827 828 828 828 828 829 829 830 831 831 832 832 832 832 831 831 831 832 832 832 832 831 831 831 831 831 830 830 831 832 833 832 832 833 833 834 834 833 833 833 832 832 832 832 833 833 833 834 834 835 835 835 837 839 840 840 840 840 840 841 841 841 840 840 840 840 840 840 839
814 813 814 814 813 811 811 814 816 818 819 820 821 822 823 825 826 827 829 829 830 831 831 832 832 832 833 833 832 833 833 833 833 833 833 833 832 832 831 831 830 830 830 830 830 831 831 832 832 833 833 834 834 834 834 832 830 829 829 829 829 829 830 831 832 833 833 833 835 837 838 839 839 839 839 839 840 839 839 839 839 839 839 838 838
814 815 816 815 814 814 815 816 818 820 821 821 822 823 825 826 827 829 831 832 832 833 834 834 834 834 834 834 834 834 834 835 835 835 834 834 834 833 832 831 830 830 830 831 832 832 833 833 834 834 835 836 836 836 836 834 832 829 828 828 828 828 828 829 829 830 830 830 832 835 836 837 837 837 838 838 838 838 838 838 838 838 838 837 837
815 817 818 817 818 818 819 820 822 823 824 824 825 826 828 829 830 831 833 833 834 835 835 835 835 835 835 835 836 836 836 836 836 836 836 835 835 835 834 833 832 831 831 832 834 835 835 835 835 836 837 837 837 837 837 836 834 832 830 829 829 829 829 829 830 830 829 828 830 832 834 835 835 835 836 837 837 836 836 836 836 836 836 836 836
817 819 820 820 822 822 823 825 826 826 828 829 829 830 831 832 833 834 834 834 835 835 836 836 836 837 836 837 837 837 838 838 838 838 838 837 837 836 836 835 834 834 834 834 835 836 837 837 838 838 838 838 838 837 837 836 835 833 832 831 832 832 832 833 833 832 830 829 830 832 833 833 833 833 834 835 835 835 834 834 834 834 834 834 834
820 821 822 823 824 825 826 828 828 829 831 832 832 833 833 834 835 835 835 835 836 836 837 837 837 837 837 838 838 838 839 839 839 840 839 838 838 838 837 837 836 836 836 836 837 837 838 838 839 840 839 839 839 839 838 837 837 836 835 834 834 834 834 834 834 833 831 830 831 832 832 832 832 832 832 832 832 832 832 832 832 832 832 832 833
822 823 824 824 825 826 828 829 830 831 832 833 834 835 835 835 836 836 836 837 837 837 838 838 838 838 839 839 839 839 840 840 840 840 840 840 840 839 839 839 838 838 837 837 838 838 839 839 840 840 840 840 840 840 840 839 839 838 837 836 836 835 834 833 833 832 832 831 831 831 831 831 831 831 830 830 830 830 830 830 830 831 831 831 831
823 824 825 826 827 828 829 830 831 832 832 833 835 835 835 836 837 837 838 838 838 839 839 839 839 839 839 839 839 840 840 840 841 841 841 841 841 840 840 840 840 839 839 838 838 838 839 840 840 840 840 841 841 841 840 840 839 838 837 836 836 835 834 833 832 832 831 831 831 831 830 830 830 830 829 828 828 828 828 828 829 829 830 830 830
824 825 826 827 828 829 831 832 833 833 834 835 835 836 836 837 837 838 839 839 839 839 839 839 839 839 839 839 839 839 840 840 841 841 841 841 841 841 841 841 841 841 840 840 839 839 839 840 840 841 841 841 841 841 840 839 838 837 836 835 835 834 833 832 831 831 831 831 831 830 829 829 829 829 829 828 827 827 828 828 829 829 829 830 831
824 825 826 827 829 830 831 833 834 835 835 836 836 837 838 838 838 839 839 839 839 839 838 839 839 838 839 839 839 839 840 840 841 841 841 841 841 841 841 841 841 841 841 841 841 840 841 841 841 841 841 841 841 841 840 839 837 836 835 834 833 833 833 832 832 831 830 830 830 829 829 830 830 830 830 829 829 828 828 829 829 830 830 831 831
825 826 827 828 830 831 832 834 835 836 836 837 838 838 839 839 839 840 840 840 840 839 838 839 839 839 839 839 839 840 840 840 841 841 841 841 841 842 842 841 841 841 841 841 841 841 841 841 841 841 841 840 840 840 839 837 836 835 835 834 833 833 832 832 831 831 830 830 830 829 829 830 831 831 830 830 830 830 829 830 830 831 831 831 831
826 827 828 829 831 832 833 834 836 837 837 838 838 839 839 839 840 840 840 840 840 840 839 839 839 839 839 839 840 840 840 840 840 840 841 841 841 842 842 841 841 841 841 841 841 840 840 840 840 840 840 839 839 838 837 836 835 834 833 833 833 832 832 831 831 831 830 830 830 829 829 830 830 831 831 831 831 831 831 831 831 832 832 832 832